Weather History for KMMV - March, 2013

Change the Weather History Date:

Sunday, March 3, 2013

  Actual Average Record
Temperature  
Mean Temperature 41 °F 45 °F  
Max Temperature 52 °F 54 °F 68 °F (1905)
Min Temperature 29 °F 36 °F 22 °F (1960)
Degree Days  
Heating Degree Days 24 20  
Month to date heating degree days 53 62  
Since 1 July heating degree days 3130 3441  
Cooling Degree Days 0 0  
Month to date cooling degree days 0 0  
Year to date cooling degree days 0 0  
Moisture  
Dew Point 31 °F    
Average Humidity 70    
Maximum Humidity 96    
Minimum Humidity 44    
Precipitation  
Precipitation 0.00 in 0.12 in 1.86 in (1916)
Month to date precipitation T 0.37  
Year to date precipitation 2.67 10.91  
Snow  
Snow 0.00 in - - ()
Month to date snowfall 0.0  
Snow Depth 0.00 in    
Sea Level Pressure  
Sea Level Pressure 30.31 in    
Wind  
Wind Speed 3 mph (North)    
Max Wind Speed 9 mph    
Max Gust Speed -    
Visibility 9 miles    
Events      
T = Trace of Precipitation, MM = Missing Value Source: NWS Daily Summary

Daily Weather History Graph

Daily Weather History Graph

Search for Another Location

Airport or City:

Trip Planner

Search our weather history database for the weather conditions in past years. The results will help you decide how hot, cold, wet, or windy it might be!

Date:

Astronomy

Mar. 03, 2013 Rise Set
Actual Time 6:46 AM PST 6:03 PM PST
Civil Twilight 6:16 AM PST 6:32 PM PST
Nautical Twilight 5:42 AM PST 7:06 PM PST
Astronomical Twilight 5:08 AM PST 7:40 PM PST
Moon 12:05 AM PST (3/3) 9:47 AM PST (3/3)
Length of Visible Light 12h 15m
Length of Day
11h 16m
Waning Gibbous, 62% of the Moon is Illuminated
Mar 3
Waning Gibbous
Mar 4
Last Quarter
Mar 11
New
Mar 19
First Quarter
Mar 27
Full

Hourly Weather History & Observations

Time (PST) Temp. Windchill Dew Point Humidity Pressure Visibility Wind Dir Wind Speed Gust Speed Precip Events Conditions
12:53 AM 39.0 °F - 35.1 °F 86% 30.30 in 10.0 mi Calm Calm - N/A   Mostly Cloudy
1:53 AM 36.0 °F - 33.1 °F 89% 30.32 in 10.0 mi Calm Calm - N/A   Scattered Clouds
2:53 AM 33.1 °F 30.0 °F 30.9 °F 92% 30.32 in 10.0 mi SW 3.5 mph - N/A   Clear
4:53 AM 32.0 °F - 28.9 °F 88% 30.30 in 10.0 mi Calm Calm - N/A   Clear
5:53 AM 32.0 °F 28.7 °F 28.9 °F 88% 30.32 in 10.0 mi NNE 3.5 mph - N/A   Clear
6:53 AM 30.0 °F - 27.0 °F 88% 30.33 in 8.0 mi Calm Calm - N/A   Clear
6:58 AM 30.2 °F - 28.4 °F 93% 30.33 in 1.8 mi Calm Calm - N/A   Partly Cloudy
7:05 AM 30.2 °F - 28.4 °F 93% 30.33 in 3.0 mi Calm Calm - N/A   Clear
7:33 AM 30.2 °F - 28.4 °F 93% 30.33 in 1.8 mi Calm Calm - N/A   Clear
7:42 AM 30.2 °F - 28.4 °F 93% 30.33 in 3.0 mi Calm Calm - N/A   Clear
7:53 AM 30.9 °F 27.5 °F 28.9 °F 92% 30.34 in 9.0 mi West 3.5 mph - N/A   Clear
8:53 AM 36.0 °F - 33.1 °F 89% 30.35 in 10.0 mi Calm Calm - N/A   Overcast
9:53 AM 42.1 °F - 36.0 °F 79% 30.34 in 10.0 mi Calm Calm - N/A   Partly Cloudy
10:53 AM 46.0 °F 43.1 °F 34.0 °F 63% 30.34 in 10.0 mi Variable 5.8 mph - N/A   Mostly Cloudy
11:53 AM 46.9 °F - 33.1 °F 59% 30.32 in 10.0 mi South 5.8 mph - N/A   Mostly Cloudy
12:53 PM 48.9 °F - 30.9 °F 50% 30.32 in 10.0 mi Calm Calm - N/A   Scattered Clouds
1:53 PM 50.0 °F - 32.0 °F 50% 30.30 in 10.0 mi East 6.9 mph - N/A   Mostly Cloudy
2:53 PM 51.1 °F - 30.9 °F 46% 30.29 in 10.0 mi NE 3.5 mph - N/A   Scattered Clouds
3:53 PM 50.0 °F - 30.0 °F 46% 30.29 in 10.0 mi Calm Calm - N/A   Overcast
4:53 PM 48.0 °F - 30.9 °F 52% 30.28 in 10.0 mi Calm Calm - N/A   Mostly Cloudy
5:53 PM 46.0 °F 44.8 °F 33.1 °F 61% 30.27 in 10.0 mi NNE 3.5 mph - N/A   Clear
6:53 PM 42.1 °F 37.7 °F 32.0 °F 67% 30.28 in 10.0 mi North 6.9 mph - N/A   Clear
7:53 PM 42.1 °F 39.2 °F 34.0 °F 73% 30.27 in 10.0 mi NW 4.6 mph - N/A   Clear
8:53 PM 41.0 °F 35.8 °F 34.0 °F 76% 30.27 in 10.0 mi NW 8.1 mph - N/A   Clear
9:53 PM 39.0 °F 34.8 °F 34.0 °F 82% 30.27 in 10.0 mi North 5.8 mph - N/A   Clear
10:53 PM 36.0 °F - 32.0 °F 86% 30.27 in 10.0 mi Calm Calm - N/A   Clear
11:53 PM 37.0 °F 32.4 °F 32.0 °F 82% 30.26 in 10.0 mi North 5.8 mph - N/A   Clear